Back to catalog

SL-16 R/B

AliveLEO
NORAD 24298·ROCKET BODY·🇷🇺 Russia

Launched Sep 4, 1996 from Baikonur Cosmodrome

Loading…

Next Passes (next 24 hours)

TLE

FreshSource: Space-Track

Epoch: Sep 14, 2026, 14:48 UTC

1 24298U 96051B   26257.61716814  .00000168  00000-0  11714-3 0  9994
2 24298  70.7683 135.4073 0018961 222.1298 137.8366 14.12479968548329

Track SL-16 R/B in real time with AllMySat

Download on the App Store